This demonstration page uses our WeatherBlox Daily Observations layout. Learn more.

Left ArrowRight Arrow

41.86663, -103.66717

Hourly Observations for June 1, 2016

Temp ( °F °C ) Dew Point ( °F °C ) Humidity (%) Winds ( mph kmh ) Pressure ( in mb ) Visibility ( mi km ) Precip ( " mm )
12:53 am 00:53 Mostly Cloudy 46 7.8 38 3.3 73 73 N 8 13 30.10 1019 10 16 0.00 0.00
1:53 am 01:53 Partly Cloudy 46 7.8 38 3.3 73 73 N 3 6 30.10 1019 10 16 0.00 0.00
2:53 am 02:53 Cloudy 47 8.3 38 3.3 71 71 S 5 7 30.11 1020 10 16 0.00 0.00
3:53 am 03:53 Cloudy 48 8.9 40 4.4 74 74 Calm 30.11 1020 10 16 0.00 0.00
4:53 am 04:53 Mostly Cloudy 43 6.1 38 3.3 82 82 N 7 11 30.12 1020 10 16 0.00 0.00
5:53 am 05:53 Mostly Cloudy 42 5.6 38 3.3 85 85 WNW 3 6 30.11 1020 10 16 0.00 0.00
6:53 am 06:53 Mostly Sunny 49 9.4 41 5 74 74 NNW 3 6 30.10 1019 10 16 0.00 0.00
7:53 am 07:53 Mostly Sunny 54 12.2 41 5 62 62 NNW 3 6 30.11 1020 10 16 0.00 0.00
8:53 am 08:53 Cloudy 59 15 41 5 51 51 VRB 3 6 30.11 1020 10 16 0.00 0.00
9:53 am 09:53 Sunny 63 17.2 39 3.9 41 41 Calm 30.09 1019 10 16 0.00 0.00
10:53 am 10:53 Sunny 65 18.3 39 3.9 39 39 VRB 7 11 30.08 1019 10 16 0.00 0.00
11:53 am 11:53 Sunny 66 18.9 39 3.9 37 37 VRB 3 6 30.06 1018 10 16 0.00 0.00
12:53 pm 12:53 Sunny 69 20.6 40 4.4 35 35 undefined N/A 30.03 1017 10 16 0.00 0.00
1:53 pm 13:53 Sunny 72 22.2 43 6.1 35 35 ESE 6 9 30.00 1016 10 16 0.00 0.00
2:53 pm 14:53 Sunny 74 23.3 45 7.2 36 36 E 12 19 29.98 1015 10 16 0.00 0.00
3:53 pm 15:53 Sunny 74 23.3 46 7.8 37 37 SSE 6 9 29.95 1014 10 16 0.00 0.00
4:53 pm 16:53 Mostly Sunny 74 23.3 48 8.9 40 40 SE 15 24 29.95 1014 10 16 0.00 0.00
5:53 pm 17:53 Sunny 71 21.7 50 10 47 47 SSE 10 17 29.96 1015 10 16 0.00 0.00
6:53 pm 18:53 Sunny 70 21.1 49 9.4 47 47 SSE 9 15 29.97 1015 10 16 0.00 0.00
7:53 pm 19:53 Sunny 66 18.9 50 10 56 56 SE 8 13 29.98 1015 10 16 0.00 0.00
8:53 pm 20:53 Clear 62 16.7 50 10 65 65 ESE 9 15 29.98 1015 10 16 0.00 0.00
9:53 pm 21:53 Clear 60 15.6 50 10 70 70 ESE 8 13 30.00 1016 10 16 0.00 0.00
10:53 pm 22:53 Clear 57 13.9 50 10 78 78 SE 5 7 30.00 1016 10 16 0.00 0.00
11:53 pm 23:53 Clear 54 12.2 49 9.4 83 83 ESE 5 7 30.00 1016 10 16 0.00 0.00

Powered by AerisWeather